GSAT0206 (GALILEO 10)

Last updated on Fri Sep 18 2026 00:02:48 GMT+0000 (Coordinated Universal Time)

1 40890U 15045B 26259.96432677 .00000017 00000+0 00000+0 0 9990 2 40890 54.9240 219.0714 0002624 353.2075 6.7586 1.70473245 68605
UTC large
Height (km)
Speed (km/s)
/
Latitude / Longitude
Inclination (degrees)
Orbital Period (minutes)
Azimuth
Elevation
Range (km)
Doppler Factor

Next 0 passes for location: London (51.5072 / 0.1276)

No passes found over London.
GSAT0206 (GALILEO 10)